Retour au catalogue

JILIN-1 SAR-01A

ActifScienceSSO
NORAD 61240·PAYLOAD·🇨🇳 China
Ce nom de satellite n'a pas encore été confirmé par des sources officielles.

Lancé Sep 24, 2024 depuis Jiuquan Satellite Launch Center

Loading…

Prochains Passages (prochaines 24 heures)

TLE

FraisSource: Space-Track

Époque: Sep 14, 2026, 23:30 UTC

1 61240U 24174C   26257.97926987  .00002740  00000-0  13362-3 0  9991
2 61240  97.4496 264.6778 0001589  88.9461 271.1956 15.19148071109315

Suivez JILIN-1 SAR-01A en temps réel avec AllMySat

Download on the App Store